Find Starlink 1872

NORAD ID: 46742 Int'l Des: 2020-074 Owner: SPXS Country: US Constellation: starlink decayed
LEOCIRCULAR

Re-entered — Apr 15, 2023

Loading 3D Globe...

About Starlink 1872

Starlink 1872 (NORAD 46742) is a starlink constellation satellite (v1.0) launched Oct 24, 2020 by SPXS of US. It re-entered the atmosphere on Apr 15, 2023. with a mass of 260.00 kg.

About Starlink 1872

Description loading...

Altitude History

Loading altitude history...

Two-Line Element Set

1 46742U 20074D 23105.07315455 .21675237 12225-4 27139-2 0 9990
2 46742 53.0269 316.1294 0008922 268.5675 222.3042 16.35150253138127
Epoch: Apr 15, 2023 • Age: 27934 hours

Current Status

Position data unavailable
Launch Date Oct 24, 2020
Age 5.6 years
Decay Date Apr 15, 2023
Type internet

Technical Details

Classification Payload
Mass 260.00 kg
Dry Mass 248.00 kg
Total Mass 260.00 kg
Length 0.20 m
Diameter 2.80 m
Span 9.00 m
Shape Box + pan
Manufacturer SPXS
Bus Type Starlink
Phase Status Unknown Transfer Status
Owner/State SPXS/US

Most Searched